Weather History for Delaware, OH

Change the Weather History Date:

Saturday, October 12, 2013

  Actual Average Record
Temperature  
Mean Temperature 58 °F -  
Max Temperature 73 °F 63 °F 85 °F (1938)
Min Temperature 44 °F 40 °F 21 °F (1964)
Degree Days  
Heating Degree Days 6    
Growing Degree Days 8 (Base 50)    
Moisture  
Dew Point 51 °F    
Average Humidity 77    
Maximum Humidity 100    
Minimum Humidity 53    
Precipitation  
Precipitation 0.01 in - - ()
Sea Level Pressure  
Sea Level Pressure 30.10 in    
Wind  
Wind Speed 1 mph (SSE)    
Max Wind Speed 7 mph    
Max Gust Speed -    
Visibility 10 miles    
Events      
Averages and records for this station are not official NWS values.
T = Trace of Precipitation, MM = Missing Value Source: NWS Daily Summary

Daily Weather History Graph

Daily Weather History Graph

Search for Another Location

Airport:

Trip Planner

Search our weather history database for the weather conditions in past years. The results will help you decide how hot, cold, wet, or windy it might be!

Date:

Astronomy

Oct. 12, 2013 Rise Set
Actual Time 7:40 AM EDT 6:56 PM EDT
Civil Twilight 7:12 AM EDT 7:24 PM EDT
Nautical Twilight 6:41 AM EDT 7:55 PM EDT
Astronomical Twilight 6:09 AM EDT 8:26 PM EDT
Moon 3:06 PM EDT (10/12) 12:41 AM EDT (10/12)
Length of Visible Light 12h 11m
Length of Day
11h 16m
First Quarter, 58% of the Moon is Illuminated
Oct 12
First Quarter
Oct 18
Full
Oct 26
Last Quarter
Nov 3
New
Nov 10
First Quarter

Hourly Weather History & Observations

Time (EDT) Temp. Dew Point Humidity Pressure Visibility Wind Dir Wind Speed Gust Speed Precip Events Conditions
12:17 AM 50.0 °F 46.4 °F 87% 30.07 in 10.0 mi Calm Calm - N/A   Clear
12:38 AM 50.0 °F 46.4 °F 87% 30.07 in 10.0 mi Calm Calm - N/A   Clear
12:57 AM 50.0 °F 46.4 °F 87% 30.08 in 10.0 mi Calm Calm - N/A   Clear
1:17 AM 50.0 °F 46.4 °F 87% 30.08 in 10.0 mi Calm Calm - N/A   Clear
1:38 AM 48.2 °F 46.4 °F 93% 30.08 in 10.0 mi Calm Calm - N/A   Clear
1:57 AM 48.2 °F 46.4 °F 93% 30.08 in 10.0 mi Calm Calm - N/A   Scattered Clouds
2:17 AM 46.4 °F 46.4 °F 100% 30.08 in 10.0 mi Calm Calm - N/A   Scattered Clouds
2:38 AM 46.4 °F 44.6 °F 93% 30.08 in 10.0 mi Calm Calm - N/A   Clear
2:57 AM 46.4 °F 46.4 °F 100% 30.08 in 10.0 mi Calm Calm - N/A   Clear
3:17 AM 46.4 °F 44.6 °F 93% 30.09 in 10.0 mi Calm Calm - N/A   Clear
3:38 AM 46.4 °F 44.6 °F 93% 30.09 in 10.0 mi Calm Calm - N/A   Clear
3:57 AM 46.4 °F 44.6 °F 93% 30.08 in 10.0 mi Calm Calm - N/A   Clear
4:17 AM 46.4 °F 44.6 °F 93% 30.08 in 10.0 mi Calm Calm - N/A   Clear
4:37 AM 46.4 °F 44.6 °F 93% 30.09 in 10.0 mi Calm Calm - N/A   Clear
4:57 AM 46.4 °F 44.6 °F 93% 30.09 in 10.0 mi Calm Calm - N/A   Clear
5:17 AM 46.4 °F 44.6 °F 93% 30.09 in 10.0 mi Calm Calm - N/A   Clear
5:38 AM 44.6 °F 44.6 °F 100% 30.09 in 10.0 mi Calm Calm - N/A   Clear
5:57 AM 46.4 °F 44.6 °F 93% 30.09 in 10.0 mi Calm Calm - N/A   Clear
6:17 AM 46.4 °F 44.6 °F 93% 30.10 in 10.0 mi Calm Calm - N/A   Clear
6:38 AM 46.4 °F 44.6 °F 93% 30.10 in 10.0 mi Calm Calm - N/A   Clear
6:57 AM 46.4 °F 44.6 °F 93% 30.10 in 10.0 mi Calm Calm - N/A   Clear
7:17 AM 44.6 °F 44.6 °F 100% 30.10 in 10.0 mi Calm Calm - N/A   Clear
7:37 AM 44.6 °F 44.6 °F 100% 30.11 in 10.0 mi Calm Calm - N/A   Clear
7:57 AM 46.4 °F 46.4 °F 100% 30.11 in 7.0 mi Calm Calm - N/A   Clear
8:18 AM 48.2 °F 46.4 °F 93% 30.12 in 10.0 mi Calm Calm - N/A   Clear
8:37 AM 51.8 °F 50.0 °F 94% 30.12 in 10.0 mi Calm Calm - N/A   Scattered Clouds
8:57 AM 53.6 °F 50.0 °F 88% 30.12 in 10.0 mi Calm Calm - N/A   Overcast
9:18 AM 55.4 °F 51.8 °F 88% 30.12 in 10.0 mi Calm Calm - N/A   Mostly Cloudy
9:37 AM 59.0 °F 51.8 °F 77% 30.12 in 10.0 mi Calm Calm - N/A   Scattered Clouds
9:58 AM 62.6 °F 51.8 °F 68% 30.12 in 10.0 mi East 3.5 mph - N/A   Clear
10:17 AM 62.6 °F 51.8 °F 68% 30.12 in 10.0 mi SE 4.6 mph - N/A   Clear
10:37 AM 62.6 °F 51.8 °F 68% 30.12 in 10.0 mi Calm Calm - N/A   Clear
10:58 AM 62.6 °F 51.8 °F 68% 30.12 in 10.0 mi South 3.5 mph - N/A   Clear
11:17 AM 64.4 °F 53.6 °F 68% 30.11 in 10.0 mi Calm Calm - N/A   Clear
11:37 AM 66.2 °F 53.6 °F 64% 30.11 in 10.0 mi Calm Calm - N/A   Clear
11:58 AM 68.0 °F 53.6 °F 60% 30.11 in 10.0 mi Calm Calm - N/A   Scattered Clouds
12:17 PM 68.0 °F 53.6 °F 60% 30.11 in 10.0 mi Calm Calm - N/A   Mostly Cloudy
12:37 PM 68.0 °F 53.6 °F 60% 30.11 in 10.0 mi Calm Calm - N/A   Mostly Cloudy
12:58 PM 68.0 °F 53.6 °F 60% 30.11 in 10.0 mi SSW 3.5 mph - N/A   Overcast
1:17 PM 68.0 °F 53.6 °F 60% 30.10 in 10.0 mi SSW 3.5 mph - N/A   Overcast
1:37 PM 71.6 °F 53.6 °F 53% 30.10 in 10.0 mi SSE 5.8 mph - N/A   Mostly Cloudy
1:58 PM 71.6 °F 55.4 °F 57% 30.09 in 10.0 mi ESE 5.8 mph - N/A   Scattered Clouds
2:17 PM 71.6 °F 55.4 °F 57% 30.09 in 10.0 mi Calm Calm - N/A   Clear
2:37 PM 71.6 °F 55.4 °F 57% 30.09 in 10.0 mi SSE 4.6 mph - N/A   Scattered Clouds
2:58 PM 71.6 °F 53.6 °F 53% 30.08 in 10.0 mi ESE 4.6 mph - N/A   Clear
3:17 PM 71.6 °F 55.4 °F 57% 30.08 in 10.0 mi SE 3.5 mph - N/A   Clear
3:37 PM 71.6 °F 55.4 °F 57% 30.08 in 10.0 mi SE 4.6 mph - N/A   Clear
3:57 PM 71.6 °F 55.4 °F 57% 30.08 in 10.0 mi SSE 5.8 mph - N/A   Clear
4:17 PM 73.4 °F 55.4 °F 53% 30.08 in 10.0 mi SSE 5.8 mph - N/A   Scattered Clouds
4:38 PM 71.6 °F 55.4 °F 57% 30.08 in 10.0 mi South 4.6 mph - N/A   Scattered Clouds
4:57 PM 71.6 °F 55.4 °F 57% 30.09 in 10.0 mi SE 6.9 mph - N/A   Mostly Cloudy
5:17 PM 71.6 °F 55.4 °F 57% 30.09 in 10.0 mi SSE 5.8 mph - N/A   Overcast
5:37 PM 69.8 °F 53.6 °F 56% 30.09 in 10.0 mi SSE 5.8 mph - N/A   Mostly Cloudy
5:57 PM 69.8 °F 55.4 °F 60% 30.10 in 10.0 mi SSE 4.6 mph - N/A   Scattered Clouds
6:17 PM 69.8 °F 55.4 °F 60% 30.09 in 10.0 mi SSE 4.6 mph - N/A   Clear
6:37 PM 68.0 °F 55.4 °F 64% 30.10 in 10.0 mi SSE 3.5 mph - N/A   Clear
6:57 PM 64.4 °F 53.6 °F 68% 30.09 in 10.0 mi SE 3.5 mph - N/A   Clear
7:17 PM 62.6 °F 53.6 °F 72% 30.10 in 10.0 mi SSE 3.5 mph - N/A   Clear
7:38 PM 62.6 °F 53.6 °F 72% 30.10 in 10.0 mi SSE 3.5 mph - N/A   Clear
7:58 PM 62.6 °F 53.6 °F 72% 30.10 in 10.0 mi SSE 3.5 mph - N/A   Clear
8:17 PM 60.8 °F 53.6 °F 77% 30.11 in 10.0 mi Calm Calm - N/A   Clear
8:38 PM 59.0 °F 53.6 °F 82% 30.11 in 10.0 mi Calm Calm - N/A   Clear
8:57 PM 59.0 °F 53.6 °F 82% 30.12 in 10.0 mi Calm Calm - N/A   Scattered Clouds
9:17 PM 60.8 °F 55.4 °F 82% 30.12 in 10.0 mi South 3.5 mph - N/A   Overcast
9:38 PM 60.8 °F 53.6 °F 77% 30.12 in 10.0 mi Calm Calm - N/A   Overcast
9:57 PM 59.0 °F 55.4 °F 88% 30.13 in 10.0 mi Calm Calm - N/A   Overcast
10:17 PM 60.8 °F 55.4 °F 82% 30.13 in 10.0 mi Calm Calm - N/A   Overcast
10:38 PM 60.8 °F 55.4 °F 82% 30.13 in 10.0 mi Calm Calm - N/A   Overcast
10:57 PM 60.8 °F 55.4 °F 82% 30.14 in 10.0 mi Calm Calm - N/A   Overcast
11:17 PM 60.8 °F 55.4 °F 82% 30.14 in 10.0 mi Calm Calm - 0.01 in   Overcast
11:38 PM 60.8 °F 55.4 °F 82% 30.14 in 10.0 mi Calm Calm - 0.01 in   Overcast
11:57 PM 60.8 °F 55.4 °F 82% 30.14 in 10.0 mi Calm Calm - 0.01 in   Overcast